GW5241 Weather Reports


time (UTC)temp
C
wind
direction
speed
KPH
gust
KPH
rain 1hr
cm
rain 24hr
cm
rain mn
cm
humidity
%
barometer
mb
20260505153033 12 1 14.5 25.7 0.00 0.94 0.94 85 1009.1
20260505151507 13 38 9.7 16.1 0.00 0.94 0.94 87 1009.2
20260505124511 15 77 1.6 11.3 0.00 0.94 0.94 91 1008.0
20260505123041 15 15 1.6 8.0 0.00 0.94 0.94 91 1007.5
20260505121528 -17 0.0 0.0 0.00 0.94 0.94 1007.5
20260505120034 -17 0.0 0.0 0.00 0.94 0.94 1007.1
20260505114532 -17 0.0 0.0 0.00 0.94 0.94 1007.0
20260505113032 -17 0.0 0.0 0.00 0.94 0.94 1007.0
20260505111535 -17 0.0 0.0 0.00 0.94 0.94 1007.2
20260505101529 -17 0.0 0.0 0.00 0.94 0.94 1006.6
20260505100034 -17 0.0 0.0 0.00 0.94 0.94 1006.8
20260505094531 -17 0.0 0.0 0.03 0.94 0.94 1006.1
20260505093033 -17 0.0 0.0 0.05 0.94 0.94 1006.5
20260505091533 -17 0.0 0.0 0.10 0.94 0.94 1007.0
20260505090036 -17 0.0 0.0 0.13 0.94 0.94 1006.9
20260505084512 16 284 3.2 22.5 0.33 0.91 0.91 88 1007.0
20260505083020 16 238 14.5 29.0 0.36 0.89 0.89 93 1006.4
20260505081504 16 139 4.8 20.9 0.36 0.84 0.84 93 1006.0
20260505080007 16 145 1.6 8.0 0.41 0.81 0.81 93 1007.2
20260505074511 16 326 0.0 4.8 0.30 0.58 0.58 93 1008.1
20260505073019 16 155 3.2 4.8 0.33 0.53 0.53 92 1008.0
20260505071520 16 39 0.0 3.2 0.36 0.48 0.48 91 1009.0
20260505070007 16 44 0.0 8.0 0.36 0.41 0.41 89 1009.2
20260505064511 17 329 3.2 9.7 0.28 0.28 0.28 87 1009.5
20260505063015 17 268 1.6 6.4 0.20 0.20 0.20 85 1009.2
20260505061520 18 163 3.2 8.0 0.13 0.13 0.13 81 1007.8
20260505060007 18 162 3.2 17.7 0.05 0.05 0.05 75 1007.6
20260505054517 20 191 9.7 19.3 0.00 0.00 0.00 68 1007.0
20260505053015 20 98 8.0 17.7 0.00 0.00 0.00 65 1006.7
20260505051519 20 154 6.4 19.3 0.00 0.00 0.00 64 1007.0
20260505041520 20 148 6.4 14.5 0.00 0.00 0.00 65 1007.0
20260505040023 20 162 3.2 14.5 0.00 0.00 0.00 65 1007.3
20260505034527 20 153 3.2 11.3 0.00 0.00 0.00 65 1007.7
20260505033014 20 94 3.2 11.3 0.00 0.00 0.00 65 1007.7
20260505031516 20 168 1.6 9.7 0.00 0.00 0.00 65 1007.9
20260505030037 20 127 1.6 6.4 0.00 0.00 0.00 65 1007.9
20260505024525 21 137 1.6 6.4 0.00 0.00 0.00 63 1007.7
20260505023032 21 174 1.6 11.3 0.00 0.00 0.00 63 1007.6
20260505021520 21 177 3.2 8.0 0.00 0.00 0.00 62 1007.5
20260505020020 21 172 3.2 8.0 0.00 0.00 0.00 61 1007.3
20260505014524 21 165 3.2 6.4 0.00 0.00 0.00 60 1007.3
20260505013025 22 167 1.6 9.7 0.00 0.00 0.00 58 1007.2
20260505011515 22 212 4.8 17.7 0.00 0.00 0.00 57 1007.1
20260505010020 22 221 4.8 16.1 0.00 0.00 0.00 56 1007.0
20260505004543 23 230 6.4 16.1 0.00 0.00 0.00 56 1006.8
20260505003030 23 224 4.8 12.9 0.00 0.00 0.00 55 1006.9
20260505001528 23 232 8.0 19.3 0.00 0.00 0.00 53 1006.6
20260505000016 24 229 11.3 22.5 0.00 0.00 0.00 52 1006.4
20260504234521 24 168 8.0 30.6 0.00 0.00 0.00 51 1006.5
20260504233025 25 272 12.9 24.1 0.00 0.00 0.00 50 1006.4
20260504231528 25 259 12.9 25.7 0.00 0.00 0.00 50 1006.4
20260504230014 25 195 12.9 24.1 0.00 0.00 0.00 49 1006.4
20260504224511 25 238 6.4 25.7 0.00 0.00 0.00 48 1006.4
20260504223004 25 289 11.3 29.0 0.00 0.00 0.00 47 1006.4
20260504221514 26 247 12.9 30.6 0.00 0.00 0.00 47 1006.1
20260504220013 25 223 17.7 38.6 0.00 0.00 0.00 47 1006.2
20260504214516 26 150 19.3 41.8 0.00 0.00 0.00 47 1006.5
20260504213032 26 139 9.7 32.2 0.00 0.00 0.00 47 1006.4
20260504211507 26 220 17.7 32.2 0.00 0.00 0.00 47 1006.5
20260504210011 26 191 20.9 40.2 0.00 0.00 0.00 47 1006.7
20260504204518 26 149 16.1 43.5 0.00 0.00 0.00 47 1007.0
20260504203018 26 188 16.1 32.2 0.00 0.00 0.00 48 1007.1
20260504201518 26 245 19.3 40.2 0.00 0.00 0.00 46 1007.3
20260504200020 26 203 17.7 46.7 0.00 0.00 0.00 46 1007.7
20260504194521 26 151 11.3 30.6 0.00 0.00 0.00 47 1007.7
20260504193020 25 180 12.9 33.8 0.00 0.00 0.00 47 1007.8
20260504191524 26 252 16.1 37.0 0.00 0.00 0.00 48 1007.9
20260504190021 26 98 9.7 35.4 0.00 0.00 0.00 48 1007.9
20260504184538 25 110 16.1 37.0 0.00 0.00 0.00 48 1007.6
20260504183020 25 274 19.3 41.8 0.00 0.00 0.00 47 1008.1
20260504181520 25 155 14.5 32.2 0.00 0.00 0.00 48 1008.1
20260504180020 25 220 16.1 38.6 0.00 0.00 0.00 47 1008.3
20260504174524 24 182 16.1 38.6 0.00 0.00 0.00 48 1008.5
20260504173023 23 233 16.1 45.1 0.00 0.00 0.00 49 1008.5
20260504171522 23 247 17.7 35.4 0.00 0.00 0.00 48 1008.7